Vorticity
4 6 6 7 6 5 4 4 3 3 3 2 2 2 1 4 4 2 4 14 2 4 7 4 5 4 6 9 8 7 7 9 9
4 5 6 7 6 5 4 3 3 3 3 3 3 3 4 6 2 1 2 12 2 4 6 5 6 4 7 11 6 7 4 7 6
4 5 5 6 5 4 4 3 3 4 4 4 4 4 6 5 1 2 4 10 2 4 6 5 6 5 10 11 5 4 3 4 7
5 5 5 6 5 4 3 3 4 4 4 4 5 6 7 5 4 5 3 12 0 2 3 6 6 6 12 10 5 4 2 5 6
5 5 5 5 5 4 4 4 4 4 4 5 6 6 6 2 2 8 6 16 -1 1 3 4 6 8 13 9 7 4 2 5 5
5 5 5 5 5 4 4 4 4 4 4 5 5 4 -0 1 1 8 8 16 -1 0 2 3 5 7 14 9 7 5 2 5 4
4 5 5 5 5 5 4 4 3 3 4 4 4 5 1 1 -0 6 7 16 1 1 2 3 4 6 15 8 6 6 3 4 4
5 5 5 5 5 5 4 2 2 4 4 3 3 2 4 3 1 6 7 16 3 1 2 2 3 4 14 8 5 6 4 3 3
5 5 5 5 5 5 3 3 3 5 4 3 3 3 3 5 4 6 4 19 4 1 3 1 3 5 12 12 4 6 4 2 2
5 5 5 5 5 2 1 0 1 3 5 6 8 10 8 8 6 7 8 15 4 1 3 2 2 5 6 14 7 4 5 4 3
4 5 5 6 2 1 0 0 -1 6 8 7 8 12 12 10 4 5 13 12 4 2 3 3 1 4 5 11 9 7 5 3 4
4 5 5 3 2 1 -0 2 1 8 6 5 11 12 13 6 8 9 10 10 5 2 3 3 3 3 7 5 9 11 11 9 6
5 5 5 3 2 2 -1 -1 7 9 6 9 12 8 5 7 8 13 9 7 5 3 3 2 2 1 5 7 5 4 5 8 9
4 5 4 5 2 2 4 5 10 5 4 3 6 6 8 9 12 9 6 6 7 6 4 3 2 0 3 5 5 7 9 8 7
4 4 4 1 2 2 3 7 6 6 5 6 8 8 8 7 7 6 5 6 7 7 5 3 3 3 1 2 3 3 -1 -1 3
4 4 4 4 3 1 4 5 7 6 4 5 8 7 3 4 6 5 6 6 6 9 5 4 3 3 2 2 2 4 2 -1 -1
4 4 5 5 4 1 5 4 4 5 5 6 9 6 2 3 6 5 6 6 6 8 7 5 5 4 3 2 2 4 1 3 1
4 4 4 4 5 1 5 4 3 4 5 8 9 6 3 3 6 6 6 6 5 5 6 6 6 5 5 3 3 3 3 3 3
4 4 3 4 5 0 5 4 2 4 4 7 7 4 3 4 7 5 5 4 4 4 4 6 6 6 5 4 4 4 4 3 2
5 5 4 4 5 1 4 3 2 3 4 5 5 5 6 3 4 4 3 4 4 5 8 7 7 7 7 6 4 4 4 3 4
Height
5859 5861 5862 5864 5866 5868 5870 5871 5873 5874 5875 5876 5876 5875 5875 5875 5874 5872 5870 5869 5867 5865 5862 5860 5857 5855 5851 5848 5845 5842 5840 5838 5836
5857 5859 5861 5863 5865 5867 5869 5870 5871 5873 5874 5874 5874 5875 5875 5873 5872 5871 5869 5867 5866 5864 5862 5860 5857 5854 5850 5847 5845 5843 5841 5839 5836
5855 5857 5859 5861 5863 5865 5867 5869 5870 5872 5873 5873 5873 5873 5873 5871 5871 5870 5868 5867 5866 5864 5862 5859 5856 5853 5850 5847 5845 5843 5841 5839 5835
5853 5855 5857 5859 5862 5864 5866 5867 5869 5870 5871 5871 5871 5871 5871 5870 5869 5868 5868 5867 5865 5864 5861 5859 5856 5853 5849 5846 5845 5842 5840 5837 5835
5850 5853 5855 5857 5860 5862 5864 5865 5867 5868 5868 5869 5869 5869 5869 5869 5868 5867 5866 5865 5865 5863 5861 5859 5855 5852 5849 5846 5845 5842 5840 5837 5835
5847 5850 5853 5855 5858 5860 5862 5864 5865 5866 5867 5868 5868 5868 5867 5867 5866 5865 5865 5864 5864 5863 5860 5858 5855 5852 5848 5845 5844 5841 5839 5838 5835
5844 5847 5851 5853 5855 5858 5860 5862 5863 5864 5865 5866 5866 5865 5865 5864 5864 5863 5863 5862 5862 5862 5860 5858 5854 5851 5847 5845 5843 5840 5838 5836 5834
5840 5844 5847 5850 5853 5856 5858 5860 5861 5862 5863 5863 5863 5863 5863 5863 5862 5861 5861 5861 5861 5860 5859 5857 5854 5850 5847 5844 5842 5839 5837 5835 5832
5836 5840 5844 5847 5850 5853 5856 5857 5858 5859 5860 5860 5861 5860 5860 5860 5859 5859 5859 5859 5859 5859 5858 5856 5853 5850 5846 5843 5841 5839 5837 5834 5832
5832 5836 5840 5844 5847 5850 5852 5854 5855 5856 5857 5857 5857 5857 5857 5857 5857 5857 5856 5856 5858 5857 5856 5855 5852 5849 5846 5843 5841 5839 5836 5835 5832
5828 5832 5837 5840 5843 5846 5848 5851 5851 5853 5853 5853 5853 5853 5853 5854 5854 5854 5854 5854 5855 5855 5855 5853 5851 5848 5845 5842 5840 5838 5836 5834 5831
5824 5828 5833 5837 5839 5842 5845 5847 5848 5849 5849 5850 5850 5850 5850 5851 5851 5852 5852 5852 5853 5853 5852 5851 5849 5847 5844 5842 5840 5837 5835 5832 5830
5819 5823 5828 5833 5835 5838 5841 5843 5844 5845 5845 5846 5847 5847 5848 5849 5849 5849 5849 5850 5850 5850 5850 5849 5848 5847 5844 5842 5839 5837 5834 5831 5828
5814 5819 5823 5828 5831 5834 5837 5839 5840 5841 5842 5843 5844 5844 5845 5846 5846 5846 5847 5847 5847 5848 5848 5848 5847 5845 5844 5842 5839 5837 5834 5831 5827
5809 5814 5818 5823 5827 5829 5832 5835 5836 5837 5837 5839 5840 5841 5842 5843 5843 5843 5844 5844 5844 5845 5845 5845 5845 5844 5842 5841 5838 5835 5832 5830 5827
5804 5808 5812 5817 5821 5825 5828 5829 5832 5833 5834 5835 5836 5838 5839 5840 5840 5840 5840 5841 5841 5842 5842 5842 5842 5841 5840 5838 5836 5834 5831 5830 5827
5797 5802 5806 5811 5816 5819 5823 5825 5827 5828 5829 5831 5833 5834 5836 5836 5837 5837 5837 5838 5838 5838 5838 5838 5838 5837 5836 5835 5834 5832 5829 5827 5825
5790 5795 5800 5805 5809 5813 5817 5819 5822 5823 5824 5826 5829 5830 5832 5832 5833 5833 5833 5834 5834 5834 5834 5834 5834 5833 5832 5831 5830 5829 5827 5823 5822
5783 5788 5793 5799 5803 5807 5811 5814 5816 5818 5819 5821 5823 5825 5826 5827 5828 5828 5829 5829 5830 5830 5829 5829 5828 5827 5827 5826 5825 5823 5821 5819 5817
5774 5780 5786 5792 5796 5800 5804 5807 5809 5812 5814 5815 5818 5820 5821 5821 5822 5823 5824 5824 5824 5824 5825 5824 5823 5822 5821 5821 5819 5817 5815 5814 5812